timestamp,surface_pressure_avg,surface_temp_avg,battery_voltage,lat,long
2018-08-15 00:00:00+00:00,286.5131,19.31,13.13,47.84626,-54.09684
2018-08-15 00:10:00+00:00,297.0013,19.33,13.05,47.84626,-54.09684
2018-08-15 00:20:00+00:00,305.7147,19.35,13.13,47.84626,-54.09684
2018-08-15 00:30:00+00:00,317.6947,19.39,13.13,47.84626,-54.09684
2018-08-15 00:40:00+00:00,328.338,19.4,13.13,47.84626,-54.09684
2018-08-15 00:50:00+00:00,334.7429,19.4,13.13,47.84626,-54.09684
2018-08-15 01:00:00+00:00,339.3846,19.44,13.05,47.84626,-54.09684
2018-08-15 01:10:00+00:00,349.0195,19.47,13.05,47.84626,-54.09684
2018-08-15 01:20:00+00:00,354.0196,19.49,13.05,47.84626,-54.09684
2018-08-15 01:30:00+00:00,353.7228,19.5,13.05,47.84626,-54.09684
2018-08-15 01:40:00+00:00,358.9547,19.55,13.13,47.84626,-54.09684
2018-08-15 01:50:00+00:00,366.1212,19.56,13.13,47.84626,-54.09684
2018-08-15 02:00:00+00:00,366.5345,19.55,13.05,47.84626,-54.09684
2018-08-15 02:10:00+00:00,366.3029,19.57,12.97,47.84626,-54.09684
2018-08-15 02:20:00+00:00,369.998,19.42,13.05,47.84626,-54.09684
2018-08-15 02:30:00+00:00,370.9512,19.3,13.05,47.84626,-54.09684
2018-08-15 02:40:00+00:00,367.0312,19.3,13.05,47.84626,-54.09684
2018-08-15 02:50:00+00:00,367.8896,19.3,13.13,47.84626,-54.09684
2018-08-15 03:00:00+00:00,367.0196,19.3,13.05,47.84626,-54.09684
2018-08-15 03:10:00+00:00,361.6379,19.3,12.97,47.84626,-54.09684
2018-08-15 03:20:00+00:00,356.4597,19.33,13.05,47.84626,-54.09684
2018-08-15 03:30:00+00:00,355.6163,19.4,13.05,47.84626,-54.09684
2018-08-15 03:40:00+00:00,350.8613,19.4,13.05,47.84626,-54.09684
2018-08-15 03:50:00+00:00,343.8812,19.42,13.05,47.84626,-54.09684
2018-08-15 04:00:00+00:00,340.1629,19.47,13.05,47.84626,-54.09684
2018-08-15 04:10:00+00:00,334.418,19.5,12.97,47.84626,-54.09684
2018-08-15 04:20:00+00:00,325.1813,19.5,13.05,47.84626,-54.09684
2018-08-15 04:30:00+00:00,317.453,19.5,13.05,47.84626,-54.09684
2018-08-15 04:40:00+00:00,311.5247,19.5,13.05,47.84626,-54.09684
2018-08-15 04:50:00+00:00,301.9514,19.5,13.05,47.84626,-54.09684
2018-08-15 05:00:00+00:00,290.508,19.46,12.97,47.84626,-54.09684
2018-08-15 05:10:00+00:00,280.0213,19.4,12.97,47.84626,-54.09684
2018-08-15 05:20:00+00:00,271.163,19.43,12.97,47.84626,-54.09684
2018-08-15 05:30:00+00:00,259.7381,19.49,12.97,47.84626,-54.09684
2018-08-15 05:40:00+00:00,247.4531,19.5,13.05,47.84626,-54.09684
2018-08-15 05:50:00+00:00,237.8331,19.5,13.05,47.84626,-54.09684
2018-08-15 06:00:00+00:00,228.9698,19.5,12.97,47.84626,-54.09684
2018-08-15 06:10:00+00:00,217.8297,19.5,12.89,47.84626,-54.09684
2018-08-15 06:20:00+00:00,206.6298,19.5,12.97,47.84626,-54.09684
2018-08-15 06:30:00+00:00,197.6398,19.5,12.97,47.84626,-54.09684
2018-08-15 06:40:00+00:00,190.5198,19.49,12.97,47.84626,-54.09684
2018-08-15 06:50:00+00:00,184.4898,19.48,12.97,47.84626,-54.09684
2018-08-15 07:00:00+00:00,178.0965,19.46,12.97,47.84626,-54.09684
2018-08-15 07:10:00+00:00,173.9348,19.47,12.89,47.84626,-54.09684
2018-08-15 07:20:00+00:00,172.6248,19.48,12.97,47.84626,-54.09684
2018-08-15 07:30:00+00:00,171.2081,19.5,12.97,47.84626,-54.09684
2018-08-15 07:40:00+00:00,168.3431,19.5,12.97,47.84626,-54.09684
2018-08-15 07:50:00+00:00,167.0198,19.5,12.97,47.84626,-54.09684
2018-08-15 08:00:00+00:00,169.3331,19.5,12.97,47.84626,-54.09684
2018-08-15 08:10:00+00:00,171.0781,19.5,12.89,47.84626,-54.09684
2018-08-15 08:20:00+00:00,174.0448,19.5,12.97,47.84626,-54.09684
2018-08-15 08:30:00+00:00,178.6465,19.5,12.97,47.84626,-54.09684
2018-08-15 08:40:00+00:00,179.7714,19.5,12.97,47.84626,-54.09684
2018-08-15 08:50:00+00:00,181.0798,19.52,12.97,47.84626,-54.09684
2018-08-15 09:00:00+00:00,183.6415,19.53,12.89,47.84626,-54.09684
2018-08-15 09:10:00+00:00,186.0265,19.53,12.81,47.84626,-54.09684
2018-08-15 09:20:00+00:00,189.3198,19.53,12.89,47.84626,-54.09684
2018-08-15 09:30:00+00:00,193.3998,19.5,12.97,47.84626,-54.09684
2018-08-15 09:40:00+00:00,197.0981,19.52,12.97,47.84626,-54.09684
2018-08-15 09:50:00+00:00,200.0832,19.54,12.97,47.84626,-54.09684
2018-08-15 10:00:00+00:00,203.5098,19.53,12.97,47.84626,-54.09684
2018-08-15 10:10:00+00:00,209.5448,19.53,12.97,47.84626,-54.09684
2018-08-15 10:20:00+00:00,214.8014,19.53,13.05,47.84626,-54.09684
2018-08-15 10:30:00+00:00,218.5231,19.54,13.21,47.84626,-54.09684
2018-08-15 10:40:00+00:00,222.1181,19.55,13.6,47.84626,-54.09684
2018-08-15 10:50:00+00:00,223.3714,19.56,13.76,47.84626,-54.09684
2018-08-15 11:00:00+00:00,227.1447,19.57,13.6,47.84626,-54.09684
2018-08-15 11:10:00+00:00,233.7748,19.5,13.53,47.84626,-54.09684
2018-08-15 11:20:00+00:00,240.6497,19.5,13.53,47.84626,-54.09684
2018-08-15 11:30:00+00:00,246.3981,19.5,13.6,47.84626,-54.09684
2018-08-15 11:40:00+00:00,252.9447,19.5,13.92,47.84626,-54.09684
2018-08-15 11:50:00+00:00,262.7498,19.5,14.8,47.84626,-54.09684
2018-08-15 12:00:00+00:00,272.8197,19.5,15.04,47.84626,-54.09684
2018-08-15 12:10:00+00:00,282.0814,19.49,14.48,47.84626,-54.09684
2018-08-15 12:20:00+00:00,290.3397,19.4,14.48,47.84626,-54.09684
2018-08-15 12:30:00+00:00,297.3381,19.44,14.8,47.84626,-54.09684
2018-08-15 12:40:00+00:00,303.3781,19.46,14.56,47.84626,-54.09684
2018-08-15 12:50:00+00:00,313.478,19.5,14.48,47.84626,-54.09684
2018-08-15 13:00:00+00:00,322.3463,19.47,14.4,47.84626,-54.09684
2018-08-15 13:10:00+00:00,327.6479,19.48,14.64,47.84626,-54.09684
2018-08-15 13:20:00+00:00,331.793,19.48,14.72,47.84626,-54.09684
2018-08-15 13:30:00+00:00,342.8696,19.4,14.64,47.84626,-54.09684
2018-08-15 13:40:00+00:00,349.148,19.35,14.64,47.84626,-54.09684
2018-08-15 13:50:00+00:00,350.503,19.4,14.64,47.84626,-54.09684
2018-08-15 14:00:00+00:00,352.9479,19.4,14.56,47.84626,-54.09684
2018-08-15 14:10:00+00:00,356.8946,19.4,14.56,47.84626,-54.09684
2018-08-15 14:20:00+00:00,356.9779,19.4,14.64,47.84626,-54.09684
2018-08-15 14:30:00+00:00,356.433,19.4,14.48,47.84626,-54.09684
2018-08-15 14:40:00+00:00,357.8846,19.4,14.48,47.84626,-54.09684
2018-08-15 14:50:00+00:00,357.3596,19.4,14.48,47.84626,-54.09684
2018-08-15 15:00:00+00:00,354.7246,19.4,14.24,47.84626,-54.09684
2018-08-15 15:10:00+00:00,354.1546,19.37,14.32,47.84626,-54.09684
2018-08-15 15:20:00+00:00,353.8796,19.35,14.48,47.84626,-54.09684
2018-08-15 15:30:00+00:00,351.5996,19.35,14.24,47.84626,-54.09684
2018-08-15 15:40:00+00:00,349.1597,19.35,14.16,47.84626,-54.09684
2018-08-15 15:50:00+00:00,347.213,19.36,14.24,47.84626,-54.09684
2018-08-15 16:00:00+00:00,343.848,19.36,14.4,47.84626,-54.09684
2018-08-15 16:10:00+00:00,338.5464,19.35,14.24,47.84626,-54.09684
2018-08-15 16:20:00+00:00,333.3913,19.3,14.32,47.84626,-54.09684
2018-08-15 16:30:00+00:00,329.2663,19.2,14.16,47.84626,-54.09684
2018-08-15 16:40:00+00:00,324.5679,19.1,14.16,47.84626,-54.09684
2018-08-15 16:50:00+00:00,318.0864,19.1,14.08,47.84626,-54.09684
2018-08-15 17:00:00+00:00,308.2097,19.09,14.08,47.84626,-54.09684
2018-08-15 17:10:00+00:00,300.1364,19.0,14.0,47.84626,-54.09684
2018-08-15 17:20:00+00:00,290.6597,19.01,14.08,47.84626,-54.09684
2018-08-15 17:30:00+00:00,278.7731,19.13,14.0,47.84626,-54.09684
2018-08-15 17:40:00+00:00,268.3015,19.2,13.92,47.84626,-54.09684
2018-08-15 17:50:00+00:00,261.5181,19.2,13.84,47.84626,-54.09684
2018-08-15 18:00:00+00:00,251.8147,19.29,13.76,47.84626,-54.09684
2018-08-15 18:10:00+00:00,238.3198,19.46,13.68,47.84626,-54.09684
2018-08-15 18:20:00+00:00,230.268,19.5,13.68,47.84626,-54.09684
2018-08-15 18:30:00+00:00,222.5264,19.5,13.6,47.84626,-54.09684
2018-08-15 18:40:00+00:00,209.0865,19.56,13.6,47.84626,-54.09684
2018-08-15 18:50:00+00:00,198.8598,19.6,13.6,47.84626,-54.09684
2018-08-15 19:00:00+00:00,195.5848,19.61,13.53,47.84626,-54.09684
2018-08-15 19:10:00+00:00,190.7698,19.7,13.37,47.84626,-54.09684
2018-08-15 19:20:00+00:00,185.4931,19.7,13.37,47.84626,-54.09684
2018-08-15 19:30:00+00:00,183.3848,19.73,13.37,47.84626,-54.09684
2018-08-15 19:40:00+00:00,181.4748,19.75,13.37,47.84626,-54.09684
2018-08-15 19:50:00+00:00,180.1331,19.79,13.37,47.84626,-54.09684
2018-08-15 20:00:00+00:00,181.9781,19.8,13.37,47.84626,-54.09684
2018-08-15 20:10:00+00:00,181.3915,19.8,13.21,47.84626,-54.09684
2018-08-15 20:20:00+00:00,178.9532,19.8,13.29,47.84626,-54.09684
2018-08-15 20:30:00+00:00,179.2731,19.8,13.21,47.84626,-54.09684
2018-08-15 20:40:00+00:00,180.6082,19.8,13.21,47.84626,-54.09684
2018-08-15 20:50:00+00:00,181.1898,19.8,13.29,47.84626,-54.09684
2018-08-15 21:00:00+00:00,182.5498,19.8,13.21,47.84626,-54.09684
2018-08-15 21:10:00+00:00,188.2231,19.8,13.13,47.84626,-54.09684
2018-08-15 21:20:00+00:00,192.8098,19.8,13.21,47.84626,-54.09684
2018-08-15 21:30:00+00:00,196.0865,19.8,13.21,47.84626,-54.09684
2018-08-15 21:40:00+00:00,202.1548,19.8,13.21,47.84626,-54.09684
2018-08-15 21:50:00+00:00,208.2681,19.8,13.21,47.84626,-54.09684
2018-08-15 22:00:00+00:00,209.7115,19.8,13.13,47.84626,-54.09684
2018-08-15 22:10:00+00:00,210.9715,19.8,13.05,47.84626,-54.09684
2018-08-15 22:20:00+00:00,217.0381,19.8,13.05,47.84626,-54.09684
2018-08-15 22:30:00+00:00,219.7247,19.8,13.13,47.84626,-54.09684
2018-08-15 22:40:00+00:00,219.1398,19.8,13.13,47.84626,-54.09684
2018-08-15 22:50:00+00:00,223.0631,19.8,13.13,47.84626,-54.09684
2018-08-15 23:00:00+00:00,229.5098,19.8,13.05,47.84626,-54.09684
2018-08-15 23:10:00+00:00,231.8314,19.8,12.97,47.84626,-54.09684
2018-08-15 23:20:00+00:00,234.4948,19.8,13.05,47.84626,-54.09684
2018-08-15 23:30:00+00:00,240.9665,19.8,13.05,47.84626,-54.09684
2018-08-15 23:40:00+00:00,246.3364,19.8,13.13,47.84626,-54.09684
2018-08-15 23:50:00+00:00,251.1131,19.7,13.13,47.84626,-54.09684
